FW5881 Weather Reports


Display with metric or nautical units.
time (UTC)temp
F
wind
direction
speed
MPH
gust
MPH
rain 1hr
in
rain 24hr
in
rain mn
in
humidity
%
barometer
mb
20260504213840 61 162 7.0 13.0 0.00 0.00 0.00 41 1005.6
20260504212840 61 151 8.0 13.0 0.00 0.00 0.00 42 1005.6
20260504211839 61 195 11.0 18.0 0.00 0.00 0.00 41 1005.5
20260504210839 62 156 12.0 22.0 0.00 0.00 0.00 39 1006.2
20260504204834 63 121 9.0 17.0 0.00 0.00 0.00 34 1006.5
20260504202831 65 346 6.0 13.0 0.00 0.00 0.00 33 1007.5
20260504201833 64 330 7.0 18.0 0.00 0.00 0.00 34 1007.5
20260504200830 64 39 9.0 17.0 0.00 0.00 0.00 36 1007.4
20260504193831 62 341 10.0 18.0 0.00 0.00 0.00 36 1006.8
20260504192831 62 320 8.0 15.0 0.00 0.00 0.00 35 1006.5
20260504191830 62 331 8.0 12.0 0.00 0.00 0.00 36 1006.4
20260504190829 62 281 6.0 11.0 0.00 0.00 0.00 34 1006.7
20260504185827 62 267 5.0 11.0 0.00 0.00 0.00 37 1006.8
20260504184825 62 255 4.0 10.0 0.00 0.00 0.00 37 1006.9
20260504182825 62 228 4.0 10.0 0.00 0.00 0.00 37 1007.0
20260504181824 63 226 4.0 6.0 0.00 0.00 0.00 36 1007.3
20260504180824 64 247 2.0 6.0 0.00 0.00 0.00 34 1007.8
20260504175822 63 151 2.0 4.0 0.00 0.00 0.00 33 1007.6
20260504173817 63 175 1.0 3.0 0.00 0.00 0.00 33 1007.9
20260504171801 65 197 3.0 5.0 0.00 0.00 0.00 33 1008.6
20260504170800 65 115 2.0 5.0 0.00 0.00 0.00 33 1008.7
20260504150732 52 116 0.0 0.0 0.00 0.00 0.00 53 1004.6
20260504140700 45 226 1.0 3.0 0.00 0.00 0.00 58 1001.9
20260504130637 40 180 0.0 0.0 0.00 0.00 0.00 59 1000.0
20260504110505 40 180 0.0 2.0 0.00 0.00 0.00 57 999.6
20260504100450 42 180 1.0 4.0 0.00 0.00 0.00 54 1000.2
20260504081409 45 180 1.0 4.0 0.00 0.00 0.00 44 1001.3
20260504080404 46 180 2.0 10.0 0.00 0.00 0.00 43 1001.9
20260504070353 48 180 4.0 12.0 0.00 0.00 0.00 40 1002.9
20260504050322 51 79 5.0 9.0 0.00 0.00 0.00 36 1005.1
20260504045319 52 83 3.0 7.0 0.00 0.00 0.00 35 1005.5
20260504043317 53 77 3.0 7.0 0.00 0.00 0.00 33 1006.1
20260504042314 54 83 4.0 7.0 0.00 0.00 0.00 32 1006.2
20260504041313 54 114 4.0 7.0 0.00 0.00 0.00 31 1006.3
20260504040310 54 86 3.0 6.0 0.00 0.00 0.00 29 1006.3
20260504034310 55 93 3.0 5.0 0.00 0.00 0.00 29 1006.5
20260504033307 55 79 2.0 5.0 0.00 0.00 0.00 29 1006.4
20260504031306 54 80 2.0 4.0 0.00 0.00 0.00 36 1005.9
20260504030303 55 106 1.0 4.0 0.00 0.00 0.00 32 1006.5
20260504024303 57 51 0.0 0.0 0.00 0.00 0.00 28 1007.0
20260504021258 58 109 0.0 0.0 0.00 0.00 0.00 36 1007.8
20260504020258 59 137 0.0 0.0 0.00 0.00 0.00 31 1007.9
20260504015244 60 217 0.0 0.0 0.00 0.00 0.00 33 1008.2
20260504014239 61 216 0.0 0.0 0.00 0.00 0.00 31 1008.7
20260504013231 62 216 0.0 0.0 0.00 0.00 0.00 32 1009.3
20260504011227 64 216 1.0 2.0 0.00 0.00 0.00 29 1010.2
20260504005225 66 217 0.0 1.0 0.00 0.00 0.00 23 1011.0
20260504004225 66 216 0.0 0.0 0.00 0.00 0.00 24 1011.2
20260504002222 66 216 0.0 0.0 0.00 0.00 0.00 20 1011.4
20260504001219 66 217 0.0 1.0 0.00 0.00 0.00 20 1011.4
20260504000220 66 217 1.0 3.0 0.00 0.00 0.00 18 1011.3
20260503235220 66 301 1.0 4.0 0.00 0.00 0.00 18 1011.4
20260503234217 66 286 3.0 6.0 0.00 0.00 0.00 19 1011.4
20260503232214 66 320 2.0 6.0 0.00 0.00 0.00 22 1011.9
20260503231210 66 303 3.0 9.0 0.00 0.00 0.00 20 1012.0
20260503230211 67 314 4.0 7.0 0.00 0.00 0.00 23 1012.1
20260503225212 67 255 5.0 13.0 0.00 0.00 0.00 19 1012.4
20260503224206 68 276 4.0 9.0 0.00 0.00 0.00 22 1012.8
20260503223205 68 245 4.0 10.0 0.00 0.00 0.00 18 1012.8
20260503222205 68 170 4.0 10.0 0.00 0.00 0.00 17 1013.1
20260503221206 70 171 4.0 11.0 0.00 0.00 0.00 17 1013.8
20260503220201 70 110 3.0 7.0 0.00 0.00 0.00 18 1013.9
20260503215200 69 151 3.0 7.0 0.00 0.00 0.00 17 1013.8